Time,TemperatureF,DewpointF,PressureIn,WindDirection,WindDirectionDegrees,WindSpeedMPH,WindSpeedGustMPH,Humidity,HourlyPrecipIn,Conditions,Clouds,dailyrainin,SoftwareType,DateUTC
2013-02-07 00:09:00,39.0,37.4,29.94,NNE,22,0.0,-999.0,94,-99.99,,,0.00,Acu-Link.com,2013-02-07 08:09:00,
2013-02-07 00:25:00,39.2,37.9,29.95,SW,225,1.1,-999.0,95,-99.99,,,0.00,Acu-Link.com,2013-02-07 08:25:00,
2013-02-07 00:40:00,39.0,37.7,29.94,West,270,0.0,-999.0,95,-99.99,,,0.00,Acu-Link.com,2013-02-07 08:40:00,
2013-02-07 00:55:00,38.8,37.5,29.96,NNW,337,0.0,-999.0,95,-99.99,,,0.00,Acu-Link.com,2013-02-07 08:55:00,
2013-02-07 01:11:00,38.7,37.4,29.94,SSE,157,0.0,-999.0,95,-99.99,,,0.00,Acu-Link.com,2013-02-07 09:11:00,
2013-02-07 01:26:00,38.3,37.0,29.95,North,0,0.0,-999.0,95,-99.99,,,0.00,Acu-Link.com,2013-02-07 09:26:00,
2013-02-07 01:41:00,38.5,38.0,29.95,SSW,202,1.7,-999.0,98,-99.99,,,0.00,Acu-Link.com,2013-02-07 09:41:00,
2013-02-07 01:57:00,38.7,38.2,29.96,NNE,22,0.0,-999.0,98,-99.99,,,0.03,Acu-Link.com,2013-02-07 09:57:00,
2013-02-07 02:12:00,38.8,38.3,29.95,North,0,0.0,-999.0,98,-99.99,,,0.06,Acu-Link.com,2013-02-07 10:12:00,
2013-02-07 02:27:00,39.0,38.5,29.96,ESE,112,0.0,-999.0,98,-99.99,,,0.06,Acu-Link.com,2013-02-07 10:27:00,
2013-02-07 02:58:00,38.7,38.2,29.96,SW,225,0.0,-999.0,98,-99.99,,,0.06,Acu-Link.com,2013-02-07 10:58:00,
2013-02-07 03:13:00,38.1,37.6,29.95,South,180,0.0,-999.0,98,-99.99,,,0.06,Acu-Link.com,2013-02-07 11:13:00,
2013-02-07 03:28:00,38.1,37.6,29.95,WNW,292,0.0,-999.0,98,-99.99,,,0.06,Acu-Link.com,2013-02-07 11:28:00,
2013-02-07 03:44:00,37.9,37.4,29.95,NE,45,0.0,-999.0,98,-99.99,,,0.06,Acu-Link.com,2013-02-07 11:44:00,
2013-02-07 03:59:00,37.6,37.1,29.96,ESE,112,0.0,-999.0,98,-99.99,,,0.06,Acu-Link.com,2013-02-07 11:59:00,
2013-02-07 04:15:00,37.8,37.3,29.96,NE,45,0.0,-999.0,98,-99.99,,,0.06,Acu-Link.com,2013-02-07 12:15:00,
2013-02-07 04:30:00,37.4,36.9,29.95,ESE,112,0.0,-999.0,98,-99.99,,,0.06,Acu-Link.com,2013-02-07 12:30:00,
2013-02-07 04:45:00,37.4,36.9,29.94,ESE,112,0.0,-999.0,98,-99.99,,,0.06,Acu-Link.com,2013-02-07 12:45:00,
2013-02-07 05:00:00,37.0,36.5,29.95,North,0,0.0,-999.0,98,-99.99,,,0.06,Acu-Link.com,2013-02-07 13:00:00,
2013-02-07 05:16:00,37.0,36.5,29.96,ESE,112,0.0,-999.0,98,-99.99,,,0.06,Acu-Link.com,2013-02-07 13:16:00,
2013-02-07 05:31:00,37.0,36.5,29.95,WNW,292,0.0,-999.0,98,-99.99,,,0.06,Acu-Link.com,2013-02-07 13:31:00,
2013-02-07 05:46:00,36.5,35.7,29.95,ESE,112,0.0,-999.0,97,-99.99,,,0.06,Acu-Link.com,2013-02-07 13:46:00,
2013-02-07 06:02:00,35.8,34.8,29.95,NE,45,0.0,-999.0,96,-99.99,,,0.06,Acu-Link.com,2013-02-07 14:02:00,
2013-02-07 06:17:00,35.4,34.4,29.95,East,90,0.0,-999.0,96,-99.99,,,0.06,Acu-Link.com,2013-02-07 14:17:00,
2013-02-07 06:32:00,34.9,33.9,29.94,NE,45,0.0,-999.0,96,-99.99,,,0.06,Acu-Link.com,2013-02-07 14:32:00,
2013-02-07 06:48:00,34.7,33.7,29.95,East,90,0.0,-999.0,96,-99.99,,,0.06,Acu-Link.com,2013-02-07 14:48:00,
2013-02-07 07:03:00,34.7,33.9,29.95,SE,135,0.0,-999.0,97,-99.99,,,0.06,Acu-Link.com,2013-02-07 15:03:00,
2013-02-07 07:18:00,34.9,34.4,29.94,NE,45,0.0,-999.0,98,-99.99,,,0.06,Acu-Link.com,2013-02-07 15:18:00,
2013-02-07 07:34:00,35.2,34.7,29.94,ESE,112,0.0,-999.0,98,-99.99,,,0.06,Acu-Link.com,2013-02-07 15:34:00,
2013-02-07 07:49:00,35.6,35.1,29.95,NNE,22,0.0,-999.0,98,-99.99,,,0.06,Acu-Link.com,2013-02-07 15:49:00,
2013-02-07 08:05:00,36.7,36.2,29.94,SSW,202,0.0,-999.0,98,-99.99,,,0.06,Acu-Link.com,2013-02-07 16:05:00,
2013-02-07 08:20:00,37.2,36.7,29.94,ENE,67,0.0,-999.0,98,-99.99,,,0.06,Acu-Link.com,2013-02-07 16:20:00,
2013-02-07 08:35:00,37.2,36.7,29.96,WSW,247,0.0,-999.0,98,-99.99,,,0.06,Acu-Link.com,2013-02-07 16:35:00,
2013-02-07 08:51:00,37.2,36.7,29.96,NW,315,0.0,-999.0,98,-99.99,,,0.06,Acu-Link.com,2013-02-07 16:51:00,
2013-02-07 09:06:00,37.6,37.1,29.97,NNE,22,2.7,-999.0,98,-99.99,,,0.07,Acu-Link.com,2013-02-07 17:06:00,
2013-02-07 09:21:00,38.5,38.0,29.96,North,0,1.1,-999.0,98,-99.99,,,0.08,Acu-Link.com,2013-02-07 17:21:00,
2013-02-07 09:36:00,38.8,38.3,29.97,WSW,247,2.2,-999.0,98,-99.99,,,0.08,Acu-Link.com,2013-02-07 17:36:00,
2013-02-07 09:52:00,38.8,38.3,29.96,ENE,67,2.2,-999.0,98,-99.99,,,0.10,Acu-Link.com,2013-02-07 17:52:00,
2013-02-07 10:07:00,40.3,39.8,29.95,ENE,67,1.7,-999.0,98,-99.99,,,0.15,Acu-Link.com,2013-02-07 18:07:00,
2013-02-07 10:22:00,40.1,39.3,29.98,SW,225,0.0,-999.0,97,-99.99,,,0.17,Acu-Link.com,2013-02-07 18:22:00,
2013-02-07 10:38:00,39.7,38.4,29.97,WSW,247,4.7,-999.0,95,-99.99,,,0.24,Acu-Link.com,2013-02-07 18:38:00,
2013-02-07 10:53:00,39.0,36.6,29.98,WSW,247,1.7,-999.0,91,-99.99,,,0.36,Acu-Link.com,2013-02-07 18:53:00,
2013-02-07 11:08:00,39.0,37.4,29.97,SSW,202,0.0,-999.0,94,-99.99,,,0.39,Acu-Link.com,2013-02-07 19:08:00,
2013-02-07 11:24:00,39.0,37.7,29.98,SSE,157,0.0,-999.0,95,-99.99,,,0.42,Acu-Link.com,2013-02-07 19:24:00,
2013-02-07 11:40:00,38.8,37.5,29.97,ESE,112,0.0,-999.0,95,-99.99,,,0.47,Acu-Link.com,2013-02-07 19:40:00,
2013-02-07 12:00:00,38.8,37.5,29.96,ESE,112,2.2,-999.0,95,-99.99,,,0.50,Acu-Link.com,2013-02-07 20:00:00,
2013-02-07 12:15:00,39.0,37.4,29.95,ESE,112,3.2,-999.0,94,-99.99,,,0.55,Acu-Link.com,2013-02-07 20:15:00,
2013-02-07 12:31:00,39.6,38.0,29.95,ESE,112,1.7,-999.0,94,-99.99,,,0.55,Acu-Link.com,2013-02-07 20:31:00,
2013-02-07 13:21:00,39.9,38.0,29.95,ESE,112,1.1,-999.0,93,-99.99,,,0.55,Acu-Link.com,2013-02-07 21:21:00,
2013-02-07 13:37:00,39.6,38.0,29.95,SW,225,3.2,-999.0,94,-99.99,,,0.57,Acu-Link.com,2013-02-07 21:37:00,
2013-02-07 13:52:00,39.2,37.6,29.93,SSE,157,3.7,-999.0,94,-99.99,,,0.64,Acu-Link.com,2013-02-07 21:52:00,
2013-02-07 14:07:00,39.7,37.8,29.94,South,180,0.0,-999.0,93,-99.99,,,0.65,Acu-Link.com,2013-02-07 22:07:00,
2013-02-07 14:24:00,39.6,37.7,29.95,ESE,112,0.0,-999.0,93,-99.99,,,0.65,Acu-Link.com,2013-02-07 22:24:00,
2013-02-07 14:39:00,39.9,38.0,29.94,NNE,22,2.2,-999.0,93,-99.99,,,0.69,Acu-Link.com,2013-02-07 22:39:00,
2013-02-07 14:59:00,41.0,39.1,29.94,ESE,112,0.0,-999.0,93,-99.99,,,0.69,Acu-Link.com,2013-02-07 22:59:00,
2013-02-07 15:14:00,40.5,38.6,29.94,NE,45,2.2,-999.0,93,-99.99,,,0.71,Acu-Link.com,2013-02-07 23:14:00,
2013-02-07 15:29:00,40.5,38.6,29.94,NNE,22,2.2,-999.0,93,-99.99,,,0.73,Acu-Link.com,2013-02-07 23:29:00,
2013-02-07 15:45:00,40.3,38.7,29.95,ESE,112,0.0,-999.0,94,-99.99,,,0.75,Acu-Link.com,2013-02-07 23:45:00,
2013-02-07 16:00:00,40.6,39.3,29.94,ESE,112,1.7,-999.0,95,-99.99,,,0.79,Acu-Link.com,2013-02-08 00:00:00,
2013-02-07 16:15:00,41.0,39.1,29.94,NE,45,0.0,-999.0,93,-99.99,,,0.79,Acu-Link.com,2013-02-08 00:15:00,
2013-02-07 16:30:00,41.0,39.1,29.94,East,90,0.0,-999.0,93,-99.99,,,0.79,Acu-Link.com,2013-02-08 00:30:00,
2013-02-07 16:47:00,40.6,38.7,29.94,SE,135,0.0,-999.0,93,-99.99,,,0.79,Acu-Link.com,2013-02-08 00:47:00,
2013-02-07 17:02:00,40.1,38.5,29.95,WNW,292,0.0,-999.0,94,-99.99,,,0.79,Acu-Link.com,2013-02-08 01:02:00,
2013-02-07 17:17:00,39.6,37.7,29.95,East,90,0.0,-999.0,93,-99.99,,,0.79,Acu-Link.com,2013-02-08 01:17:00,
2013-02-07 17:33:00,39.0,37.2,29.96,ESE,112,0.0,-999.0,93,-99.99,,,0.79,Acu-Link.com,2013-02-08 01:33:00,
2013-02-07 17:48:00,38.3,36.7,29.96,NE,45,0.0,-999.0,94,-99.99,,,0.79,Acu-Link.com,2013-02-08 01:48:00,
2013-02-07 18:03:00,37.8,36.5,29.97,NE,45,0.0,-999.0,95,-99.99,,,0.79,Acu-Link.com,2013-02-08 02:03:00,
2013-02-07 18:18:00,36.9,35.3,29.97,ESE,112,0.0,-999.0,94,-99.99,,,0.79,Acu-Link.com,2013-02-08 02:18:00,
2013-02-07 18:33:00,36.0,34.4,29.98,ENE,67,0.0,-999.0,94,-99.99,,,0.79,Acu-Link.com,2013-02-08 02:33:00,
2013-02-07 18:49:00,35.6,34.3,29.96,ESE,112,0.0,-999.0,95,-99.99,,,0.79,Acu-Link.com,2013-02-08 02:49:00,
2013-02-07 19:04:00,34.7,33.2,29.98,East,90,0.0,-999.0,94,-99.99,,,0.79,Acu-Link.com,2013-02-08 03:04:00,
2013-02-07 19:19:00,34.7,33.4,29.99,NE,45,0.0,-999.0,95,-99.99,,,0.79,Acu-Link.com,2013-02-08 03:19:00,
2013-02-07 19:35:00,34.5,33.2,29.99,ESE,112,0.0,-999.0,95,-99.99,,,0.79,Acu-Link.com,2013-02-08 03:35:00,
2013-02-07 19:50:00,34.0,32.7,30.00,ESE,112,0.0,-999.0,95,-99.99,,,0.79,Acu-Link.com,2013-02-08 03:50:00,
2013-02-07 20:05:00,34.5,33.7,29.98,SE,135,0.0,-999.0,97,-99.99,,,0.79,Acu-Link.com,2013-02-08 04:05:00,
2013-02-07 20:21:00,34.2,33.2,30.00,ESE,112,0.0,-999.0,96,-99.99,,,0.79,Acu-Link.com,2013-02-08 04:21:00,
2013-02-07 20:36:00,34.2,33.4,30.00,ESE,112,0.0,-999.0,97,-99.99,,,0.79,Acu-Link.com,2013-02-08 04:36:00,
2013-02-07 20:51:00,34.2,33.7,30.01,WNW,292,0.0,-999.0,98,-99.99,,,0.79,Acu-Link.com,2013-02-08 04:51:00,
2013-02-07 21:06:00,34.5,34.0,30.01,West,270,0.0,-999.0,98,-99.99,,,0.79,Acu-Link.com,2013-02-08 05:06:00,
2013-02-07 21:22:00,34.7,34.2,30.01,ESE,112,0.0,-999.0,98,-99.99,,,0.79,Acu-Link.com,2013-02-08 05:22:00,
2013-02-07 21:37:00,34.7,34.2,30.02,ESE,112,0.0,-999.0,98,-99.99,,,0.79,Acu-Link.com,2013-02-08 05:37:00,
2013-02-07 21:52:00,34.7,34.2,30.03,ESE,112,0.0,-999.0,98,-99.99,,,0.79,Acu-Link.com,2013-02-08 05:52:00,
2013-02-07 22:08:00,35.1,34.6,30.02,ESE,112,0.0,-999.0,98,-99.99,,,0.79,Acu-Link.com,2013-02-08 06:08:00,
2013-02-07 22:23:00,35.6,35.1,30.03,North,0,0.0,-999.0,98,-99.99,,,0.79,Acu-Link.com,2013-02-08 06:23:00,
2013-02-07 22:38:00,35.8,35.3,30.03,ESE,112,0.0,-999.0,98,-99.99,,,0.79,Acu-Link.com,2013-02-08 06:38:00,
2013-02-07 22:54:00,35.4,34.9,30.03,SSE,157,0.0,-999.0,98,-99.99,,,0.79,Acu-Link.com,2013-02-08 06:54:00,
2013-02-07 23:09:00,34.9,34.4,30.04,WNW,292,0.0,-999.0,98,-99.99,,,0.79,Acu-Link.com,2013-02-08 07:09:00,
2013-02-07 23:24:00,34.5,34.0,30.06,SSW,202,0.0,-999.0,98,-99.99,,,0.79,Acu-Link.com,2013-02-08 07:24:00,
2013-02-07 23:39:00,34.3,33.8,30.05,ESE,112,0.0,-999.0,98,-99.99,,,0.79,Acu-Link.com,2013-02-08 07:39:00,
2013-02-07 23:55:00,34.7,34.2,30.06,NW,315,0.0,-999.0,98,-99.99,,,0.79,Acu-Link.com,2013-02-08 07:55:00,